logo tempoitalia

Diretta Meteo Aktjubinsk, Kazakhstanlunedì 31 agosto ore 11:00

Mappa
Sereno 15 °C Sereno 24 Ore: T.min 3 T.max 20
Ponente Nord-Ovest Km/h 10.8 Punto di rugiada: 0 °C Umidità: 35% Visibilità: 10 Km
Il sole sorge alle: 06:24 Il sole tramonta alle: 19:59
31 Agosto 2026 11:00 tempo osservato: Sereno Sereno 15 35 1024 vento: Nord NO 10.8
31 Agosto 2026 10:30 tempo osservato: Sereno Sereno 14 38 1024 vento: Nord N/NO 14.4
31 Agosto 2026 10:00 tempo osservato: Sereno Sereno 13 40 1024 vento: Nord NO 10.8
31 Agosto 2026 09:30 tempo osservato: Sereno Sereno 12 46 1024 vento: Nord N/NO 10.8
31 Agosto 2026 09:00 tempo osservato: Sereno Sereno 10 49 1023 vento: Nord N 7.2
31 Agosto 2026 08:30 tempo osservato: Sereno Sereno 9 57 1023 vento: Nord N 7.2
31 Agosto 2026 08:00 tempo osservato: Sereno Sereno 7 60 1023 vento: Nord NO 10.8
31 Agosto 2026 07:30 tempo osservato: Sereno Sereno 6 65 1023 vento: Nord N 0
31 Agosto 2026 07:00 tempo osservato: Sereno Sereno 3 74 1023 vento: Nord N 3.6
31 Agosto 2026 06:30 tempo osservato: Sereno Sereno 3 74 1023 vento: Nord N 7.2
31 Agosto 2026 06:00 tempo osservato: Sereno Sereno 3 74 1022 vento: Nord N 3.6
31 Agosto 2026 05:30 tempo osservato: Sereno Sereno 3 74 1022 vento: Nord N 7.2
31 Agosto 2026 05:00 tempo osservato: Sereno Sereno 3 74 1022 vento: Nord N 3.6
31 Agosto 2026 04:30 tempo osservato: Sereno Sereno 4 69 1022 vento: Nord N 7.2
31 Agosto 2026 04:00 tempo osservato: Sereno Sereno 4 69 1022 vento: Nord N 0
31 Agosto 2026 03:30 tempo osservato: Sereno Sereno 6 65 1022 vento: Nord N 0
31 Agosto 2026 03:00 tempo osservato: Sereno Sereno 5 65 1022 vento: Nord N 0
31 Agosto 2026 02:30 tempo osservato: Sereno Sereno 5 65 1022 vento: Nord N 0
31 Agosto 2026 02:00 tempo osservato: Sereno Sereno 6 56 1022 vento: Nord N 3.6
31 Agosto 2026 01:30 tempo osservato: Sereno Sereno 5 60 1022 vento: Nord N 3.6
31 Agosto 2026 01:00 tempo osservato: Sereno Sereno 10 49 1022 vento: Nord N 0
31 Agosto 2026 00:30 tempo osservato: Sereno Sereno 11 46 1022 vento: Nord N 3.6
31 Agosto 2026 00:00 tempo osservato: Sereno Sereno 11 46 1021 vento: Nord N 7.2
30 Agosto 2026 23:30 tempo osservato: Sereno Sereno 12 43 1021 vento: Nord N 7.2
30 Agosto 2026 23:00 tempo osservato: Sereno Sereno 12 43 1021 vento: Nord N/NO 10.8
30 Agosto 2026 22:30 tempo osservato: Sereno Sereno 13 40 1021 vento: Nord N/NO 10.8
30 Agosto 2026 22:00 tempo osservato: Sereno Sereno 14 38 1021 vento: Nord N/NO 10.8
30 Agosto 2026 21:30 tempo osservato: Sereno Sereno 15 35 1021 vento: Nord N/NO 18
30 Agosto 2026 21:00 tempo osservato: Sereno Sereno 16 31 1020 vento: Nord NO 10.8
30 Agosto 2026 20:30 tempo osservato: Sereno Sereno 16 31 1020 vento: Nord NO 18
30 Agosto 2026 20:00 tempo osservato: Sereno Sereno 17 29 1019 vento: Nord NO 25.2
30 Agosto 2026 19:30 tempo osservato: Sereno Sereno 18 27 1019 vento: Nord NO 21.6
30 Agosto 2026 19:00 tempo osservato: Sereno Sereno 18 27 1019 vento: Nord O/NO 21.6
30 Agosto 2026 18:30 tempo osservato: Sereno Sereno 19 24 1019 vento: Nord O/NO 18
30 Agosto 2026 18:00 tempo osservato: Sereno Sereno 19 24 1019 vento: Nord NO 21.6
30 Agosto 2026 17:30 tempo osservato: Sereno Sereno 19 22 1019 vento: Nord O/NO 25.2
30 Agosto 2026 17:00 tempo osservato: Sereno Sereno 20 22 1019 vento: Nord N/NO 18
30 Agosto 2026 16:30 tempo osservato: Sereno Sereno 20 22 1019 vento: Nord N/NO 21.6
30 Agosto 2026 16:00 tempo osservato: Sereno Sereno 19 24 1019 vento: Nord NO 25.2
30 Agosto 2026 15:30 tempo osservato: Sereno Sereno 20 22 1019 vento: Nord NO 25.2
30 Agosto 2026 15:00 tempo osservato: Sereno Sereno 19 27 1019 vento: Nord O/NO 25.2
30 Agosto 2026 14:30 tempo osservato: Sereno Sereno 19 25 1019 vento: Nord N/NO 21.6
30 Agosto 2026 14:00 tempo osservato: Sereno Sereno 19 25 1020 vento: Nord O/NO 21.6
30 Agosto 2026 13:30 tempo osservato: Sereno Sereno 18 29 1020 vento: Nord O/NO 21.6
30 Agosto 2026 13:00 tempo osservato: Sereno Sereno 18 31 1020 vento: Nord O 18
30 Agosto 2026 12:30 tempo osservato: Sereno Sereno 18 29 1020 vento: Nord NO 21.6
30 Agosto 2026 12:00 tempo osservato: Sereno Sereno 17 33 1020 vento: Nord O/NO 21.6